Location: Unspecified
(0.0000°N, 0.0000°E)
Time: 14:32:57
(UTC+00:00)

YAOGAN-32 A - Visible Passes

Search period start: 13 November 2025 00:00
Search period end: 23 November 2025 00:00
Orbit: 683 x 685 km, 97.9° (Epoch: 13 November)

Date Brightness Start Highest point End Pass type
(mag) Time Alt. Az. Time Alt. Az. Time Alt. Az.
13 Nov ? 19:45:51 10° S 19:50:20 48° WSW 19:51:05 43° WNW visible
14 Nov ? 18:46:17 10° SE 18:50:06 25° ENE 18:50:07 25° ENE visible
14 Nov ? 20:24:30 10° SW 20:27:13 15° WSW 20:28:38 14° W visible
15 Nov ? 19:22:20 10° SSE 19:27:00 82° ENE 19:27:40 65° N visible
16 Nov ? 18:24:51 10° ESE 18:26:43 12° E 18:26:43 12° E visible
16 Nov ? 19:59:48 10° SSW 20:03:53 31° WSW 20:05:13 26° WNW visible
17 Nov ? 18:59:20 10° SSE 19:03:39 38° ENE 19:04:15 37° ENE visible
18 Nov ? 19:35:55 10° S 19:40:32 65° WSW 19:41:47 45° NW visible
19 Nov ? 18:37:00 10° ESE 18:40:17 19° ENE 18:40:48 19° ENE visible
19 Nov ? 20:13:59 10° SSW 20:17:24 20° WSW 20:19:18 16° WNW visible
20 Nov ? 19:12:34 10° SSE 19:17:10 60° ENE 19:18:19 45° NNE visible
21 Nov ? 19:49:39 10° S 19:54:02 41° WSW 19:55:50 28° NW visible
22 Nov ? 18:49:45 10° SE 18:53:45 29° ENE 18:54:51 26° NE visible
22 Nov ? 20:28:38 10° SW 20:30:52 13° WSW 20:33:06 10° WNW visible
